Regional Weather Roundup
Issued by NWS San Diego, CA

Home | Current Version | Previous Version | Text Only | Print | Product List | Glossary On
Versions: 1 2 3 4 5 6 7 8 9 10 11 12 13 14 15 16 17 18 19 20 21 22 23 24 25 26 27 28 29 30 31 32 33 34 35 36 37 38 39 40 41 42 43 44 45 46 47 48 49 50
000
ASUS46 KSGX 300111
RWRSGX

SAN DIEGO HOURLY WEATHER ROUNDUP
NATIONAL WEATHER SERVICE SAN DIEGO CA
600 PM PDT SAT AUG 29 2015

NOTE: "FAIR" INDICATES FEW OR NO CLOUDS BELOW 12,000 FEET WITH NO
SIGNIFICANT WEATHER AND/OR OBSTRUCTIONS TO VISIBILITY.

CAZ042-043-060-061-PZZ750-775-300200-

GREATER SAN DIEGO AREA

CITY           SKY/WX    TMP DP  RH WIND       PRES   REMARKS
LINDBERGH FLD  MOSUNNY   83  66  56 W8        29.85F
POINT LOMA       N/A     79  69  72 NW12        N/A
NATIONAL CITY    N/A     82  72  72 SW5       29.84S
CHULA VISTA      N/A     82  72  71 W7        29.77S
IMPERIAL BEACH SUNNY    N/A N/A N/A W9        29.85S
BROWN FIELD    SUNNY     83  64  52 W7        29.85F
MIRAMAR MCAS   MOSUNNY   87  59  38 NW7       29.85F
MONTGOMERY FLD SUNNY     85  60  42 NW8       29.85S

$$

NORTH SAN DIEGO COUNTY

CITY           SKY/WX    TMP DP  RH WIND       PRES   REMARKS
CAMP PENDLETON   N/A     84  61  45 SW13G20   29.81F
OCEANSIDE AP   SUNNY     81  69  67 W12       29.82F
OCEANSIDE HBR    N/A     77  74  89 SW9       29.86S
VISTA            N/A     85  64  49 SW3       29.81S
CARLSBAD       SUNNY     79  68  69 W7        29.84S
DEL MAR          N/A     78  71  79 W2        29.86S
FALLBROOK        N/A     86  62  43 S2        29.80S
ESCONDIDO        N/A     88  59  37 W3        29.85S
SAN MARCOS       N/A     85  64  47 NW7       29.81F
POWAY            N/A     92  58  31 NW8       29.83S

$$

EAST SAN DIEGO COUNTY

CITY           SKY/WX    TMP DP  RH WIND       PRES   REMARKS
RAMONA         SUNNY     89  55  31 W13       29.89S
SANTEE LAKES     N/A     89  60  36 W6        29.82S
LA MESA          N/A     88  60  38 W5        29.77S
JAMUL            N/A     91  64  41 CALM      29.82S
DESCANSO N       N/A     87  47  24 W1        29.71F
CAMPO            N/A     90  48  23 W14G23    29.92R

$$

ORANGE COUNTY AND THE LOS ANGELES BASIN

CITY           SKY/WX    TMP DP  RH WIND       PRES   REMARKS
JOHN WAYNE AP  SUNNY     83  66  56 SW7       29.83S
LAGUNA BEACH     N/A     86  64  48 W3        29.79S
LAKE FOREST FR   N/A     92  58  32 CALM      29.72S
SANTA ANA        N/A     90  69  49 SW3       29.77F
HUNTINGTON BCH   N/A     81  72  74 W6        29.84S
LOS ALAMITOS   FAIR      90  60  37 W9        29.82S
FULLERTON      SUNNY     91  59  33 SW7       29.81S
LONG BEACH     SUNNY     88  58  36 NW12G22   29.82F
L.A. AP        MOSUNNY   78  66  66 W13       29.83F
L.A. DOWNTOWN  SUNNY     84  65  52 VRB3      29.82F

$$

THE INLAND EMPIRE

CITY           SKY/WX    TMP DP  RH WIND       PRES   REMARKS
CORONA         SUNNY     93  57  29 W10G21    29.83S
CHINO          MOSUNNY   95  58  28 W17       29.84S
ONTARIO        MOSUNNY   95  58  28 W10G22    29.84S
SAN BERNARDINO SUNNY     95  46  18 SW13      29.85S
RIVERSIDE AP   SUNNY     95  55  26 W15G22    29.83S
MORENO VALLEY    N/A     94  56  27 W10       29.86S
MARCH ARB      SUNNY     94  52  23 NW17G24   29.87S
HORSETHIEF CYN   N/A     95  42  15 W8        29.82S
PERRIS           N/A     95  50  21 NW8       29.86F
MENIFEE          N/A    100  50  18 W6        29.88S HX  97
HEMET EAST       N/A     96  43  15 W6        29.82S
FRENCH VALLEY  FAIR      93  55  27 S15       29.86S
TEMECULA         N/A     94  57  28 S7        29.80R

$$

SAN BERNARDINO AND RIVERSIDE COUNTY MOUNTAINS

CITY           SKY/WX    TMP DP  RH WIND       PRES   REMARKS
BIG BEAR AP    SUNNY     73  37  27 W6        30.25S
PINE COVE        N/A     77  46  33 W1        29.83S

$$

SOUTHERN DESERT INCLUDING THE COACHELLA VALLEY

CITY           SKY/WX    TMP DP  RH WIND       PRES   REMARKS
PALM SPRINGS   MOSUNNY  110  48  12 NW18G28   29.71S HX 106
THOUSAND PALMS   N/A    108  47  12 W15       29.65F HX 104
PALM DESERT      N/A    111  52  14 NW2       27.84S HX 108
THERMAL        SUNNY    110  51  14 S8        29.63S HX 107
BLYTHE         SUNNY    111  51  13 SW15      29.68S HX 108
IMPERIAL AP    MOSUNNY  113  56  15 SE10      29.64S HX 112
EL CENTRO NAS  SUNNY    111  57  17 SE9       29.65F HX 111
YUMA AZ        MOSUNNY  111  59  18 S12       29.69R HX 112
MEXICALI       SUNNY    109  50  14 S9        29.67  HX 106

$$

UPPER DESERT

CITY           SKY/WX    TMP DP  RH WIND       PRES   REMARKS
VICTORVILLE AP SUNNY     97  39  13 S14G23    29.93S
APPLE VALLEY     N/A     91  47  21 S12G28    29.96S
PALMDALE       SUNNY     93  46  19 W22       29.93S
LANCASTER      SUNNY     94  45  18 SW15      29.92S
EDWARDS AFB    MOSUNNY   95  41  15 W18       29.87S
DAGGETT        SUNNY    103  41  12 SW23G30   29.81S HX  98
29 PALMS N     SUNNY    101  45  15 SW18      29.88F HX  97
NEEDLES        MOSUNNY  111  45  11 W14       29.70F HX 106

$$

REGIONAL REPORTS

CITY           SKY/WX    TMP DP  RH WIND       PRES   REMARKS
SANTA BARBARA  SUNNY     85  66  53 SE8       29.80F
SANDBERG       SUNNY     83  44  25 N17G24    30.11S
LAS VEGAS NV   MOSUNNY  103  41  12 SW15      29.76S HX  98
PHOENIX AZ     PTSUNNY  108  54  16 W5        29.73F HX 106
TIJUANA        SUNNY     82  63  51 W13       29.87S
ENSENADA NW      N/A     78  32  18 W1        29.83S

$$

OFFSHORE ISLANDS

CITY           SKY/WX    TMP DP  RH WIND       PRES   REMARKS
CATALINA ARPT  SUNNY     79  56  45 W16       29.93F
SAN NICOLAS IS SUNNY    N/A N/A N/A W35G43    29.89F

$$

MARINE AND OFFSHORE BUOY REPORTS

STATION/POSITION SKY/WX   TEMP    WIND        PRES    SWELL
                          AIR SEA DIR/SP/G            HT/PER/DIR
                          (F)     (DEG/KT/KT) (MB)    (FT/S/D)
TANNER BANKS               69 70  310/ 21/ 25 1011.8F
S CLEMENTE BASIN           71 73  290/ 17/ 19 1010.2F   3/240/14
SO. S. ROSA ISLA           67 65  310/ 19/ 23 1011.3F   3/16
W. S. BARBARA CH           67 68  320/ 23/ 27 1011.3F   3/310/15
M. S. BARBARA CH           75 72  270/ 21/ 25 1010.0F
S. MONICA BASIN            73 74  270/ 12/ 14 1010.1F   3/200/14
S PEDRO CHANNEL               74                N/A     2/210/14
DANA POINT                    76                N/A     3/190/13
OCEANSIDE OFFSHR              76                N/A     3/200/14
TORREY PINES OTR              76                N/A     2/200/14
MISSION BAY BUOY              77                N/A     2/220/14
POINT LOMA SOUTH              75                N/A     3/190/14

$$




USA.gov is the U.S. government's official web portal to all federal, state and local government web resources and services.